Spokane Fairchild, WA

4:24 PM PDT on March 27, 2017 (GMT -0700)
Fairchild Air Force Base

Weather History for KSKA - June, 2014

Change the Weather History Date:

Thursday, June 12, 2014

  Actual Average Record
Temperature  
Mean Temperature 64 °F -  
Max Temperature 77 °F 69 °F 80 °F (1999)
Min Temperature 52 °F 47 °F 39 °F (2007)
Growing Degree Days 14 (Base 50)    
Moisture  
Dew Point 41 °F    
Average Humidity 38    
Maximum Humidity 65    
Minimum Humidity 26    
Precipitation  
Precipitation 0.00 in - - ()
Sea Level Pressure  
Sea Level Pressure 29.71 in    
Wind  
Wind Speed 7 mph (ESE)    
Max Wind Speed 22 mph    
Max Gust Speed 28 mph    
Visibility 10 miles    
Events Rain    
Averages and records for this station are not official NWS values.
T = Trace of Precipitation, MM = Missing Value Source: NWS Daily Summary

Daily Weather History Graph

Daily Weather History Graph

Search for Another Location

Airport or City:

Trip Planner

Search our weather history database for the weather conditions in past years. The results will help you decide how hot, cold, wet, or windy it might be!

Date:

Astronomy

Jun. 12, 2014 Rise Set
Actual Time 4:52 AM PDT 8:48 PM PDT
Civil Twilight 4:12 AM PDT 9:29 PM PDT
Nautical Twilight 3:16 AM PDT 10:25 PM PDT
Astronomical Twilight 1:49 AM PDT 11:53 PM PDT
Moon 8:19 PM PDT (6/12) 4:44 AM PDT (6/12)
Length of Visible Light 17h 17m
Length of Day
15h 56m
Full, 100% of the Moon is Illuminated
Jun 12
Full
Jun 12
Full
Jun 19
Last Quarter
Jun 27
New
Jul 5
First Quarter

Hourly Weather History & Observations

Time (PDT) Temp. Dew Point Humidity Pressure Visibility Wind Dir Wind Speed Gust Speed Precip Events Conditions
12:58 AM 56.1 °F 39.7 °F 54% 29.81 in 10.0 mi NNE 5.8 mph - N/A   Scattered Clouds
1:58 AM 58.5 °F 40.1 °F 51% 29.80 in 10.0 mi NE 2.3 mph - N/A   Mostly Cloudy
2:58 AM 56.1 °F 40.6 °F 56% 29.78 in 10.0 mi NNE 4.6 mph - N/A   Partly Cloudy
3:58 AM 54.3 °F 40.5 °F 59% 29.77 in 10.0 mi NE 4.6 mph - N/A   Clear
4:58 AM 52.0 °F 40.6 °F 65% 29.78 in 10.0 mi NNE 3.5 mph - N/A   Clear
5:58 AM 54.1 °F 41.5 °F 62% 29.78 in 10.0 mi NNE 5.8 mph - N/A   Clear
6:58 AM 57.6 °F 43.0 °F 58% 29.76 in 10.0 mi NNE 3.5 mph - N/A   Scattered Clouds
7:58 AM 62.6 °F 41.4 °F 46% 29.75 in 10.0 mi NE 8.1 mph - N/A   Partly Cloudy
8:58 AM 62.6 °F 41.9 °F 47% 29.74 in 10.0 mi NNE 9.2 mph - N/A   Partly Cloudy
9:55 AM 66.2 °F 41.0 °F 40% 29.73 in 10.0 mi ENE 6.9 mph - N/A   Mostly Cloudy
10:58 AM 69.6 °F 41.7 °F 36% 29.72 in 10.0 mi Variable 3.5 mph - 0.00 in   Overcast
11:30 AM 71.6 °F 41.0 °F 33% 29.73 in 10.0 mi East 5.8 mph - N/A   Light Drizzle
11:34 AM 71.6 °F 41.0 °F 33% 29.73 in 10.0 mi Variable 5.8 mph - N/A   Mostly Cloudy
11:38 AM 71.6 °F 41.0 °F 33% 29.72 in 10.0 mi Variable 3.5 mph - N/A Rain Light Rain
11:55 AM 71.6 °F 41.0 °F 33% 29.72 in 10.0 mi Variable 6.9 mph - N/A   Mostly Cloudy
11:58 AM 72.0 °F 41.9 °F 34% 29.70 in 10.0 mi East 9.2 mph - 0.00 in   Mostly Cloudy
12:11 PM 71.6 °F 42.8 °F 35% 29.72 in 10.0 mi Variable 3.5 mph - N/A   Light Drizzle
12:22 PM 71.6 °F 42.8 °F 35% 29.72 in 10.0 mi Variable 3.5 mph - N/A   Overcast
12:47 PM 73.4 °F 42.8 °F 33% 29.72 in 10.0 mi Variable 5.8 mph - N/A Rain Light Rain
12:54 PM 73.4 °F 41.0 °F 31% 29.72 in 10.0 mi South 8.1 mph - N/A   Overcast
12:58 PM 73.2 °F 40.8 °F 31% 29.70 in 10.0 mi Variable 4.6 mph - 0.00 in   Mostly Cloudy
1:24 PM 73.4 °F 41.0 °F 31% 29.70 in 10.0 mi ESE 6.9 mph - N/A Rain Light Rain
1:25 PM 73.4 °F 41.0 °F 31% 29.70 in 10.0 mi ESE 5.8 mph - N/A   Mostly Cloudy
1:52 PM 75.2 °F 42.8 °F 31% 29.70 in 10.0 mi SSE 5.8 mph - N/A Rain Light Rain
1:58 PM 75.4 °F 41.9 °F 30% 29.67 in 10.0 mi South 9.2 mph - 0.00 in Rain Light Rain
2:02 PM 75.2 °F 42.8 °F 31% 29.70 in 10.0 mi Variable 4.6 mph - N/A   Partly Cloudy
2:58 PM 75.9 °F 40.3 °F 28% 29.66 in 10.0 mi Variable 4.6 mph - 0.00 in   Clear
3:58 PM 77.2 °F 41.7 °F 28% 29.65 in 10.0 mi SSE 11.5 mph 20.7 mph 0.00 in   Clear
4:58 PM 76.5 °F 41.4 °F 28% 29.63 in 10.0 mi SSW 10.4 mph - N/A   Clear
5:58 PM 76.3 °F 42.1 °F 29% 29.62 in 10.0 mi South 15.0 mph 23.0 mph N/A   Clear
6:23 PM 77.0 °F 39.2 °F 26% 29.63 in 10.0 mi SW 21.9 mph 27.6 mph N/A   Mostly Cloudy
6:58 PM 76.1 °F 38.5 °F 26% 29.61 in 10.0 mi SSW 19.6 mph 27.6 mph N/A   Scattered Clouds
7:58 PM 72.3 °F 39.6 °F 30% 29.61 in 10.0 mi SW 11.5 mph - N/A   Partly Cloudy
8:58 PM 65.7 °F 34.2 °F 31% 29.65 in 10.0 mi WSW 11.5 mph - N/A   Clear
9:58 PM 61.5 °F 35.2 °F 37% 29.70 in 10.0 mi SW 8.1 mph - N/A   Clear
10:58 PM 61.0 °F 36.9 °F 41% 29.71 in 10.0 mi South 15.0 mph 20.7 mph N/A   Mostly Cloudy
11:58 PM 56.7 °F 40.8 °F 55% 29.72 in 10.0 mi South 16.1 mph - N/A   Scattered Clouds